Location: Moscow
(55.7500°N, 37.5830°E)
Time: 05:03:57
(UTC+03:00)

Vanguard 1 - Pass Details

Date: 03 December 2021
Orbit: 652 x 3830 km, 34.2° (Epoch: 21 January)

Event Time Altitude Azimuth Distance (km) Brightness Sun altitude
Rises 05:44:35 0° 269° (W) 7,912 - -23.0°
Reaches altitude 10° 05:51:46 10° 259° (W) 6,649 - -22.0°
Exits shadow 05:56:45 17° 249° (WSW) 5,805 13.5 -21.3°
Maximum altitude 06:05:57 24° 216° (SW) 4,612 13.2 -20.0°
Drops below altitude 10° 06:16:13 10° 169° (S) 4,695 13.8 -18.6°
Sets 06:20:09 0° 156° (SSE) 5,238 14.3 -18.0°
